Miscellaneous Local Product
Issued by NWS Hastings, NE

Home | Current Version | Previous Version | Graphics & Text | Print | Product List | Glossary On
Versions: 1 2 3 4 5 6 7 8 9 10 11 12 13 14 15 16 17 18 19 20 21 22 23 24 25 26 27 28 29 30 31 32 33 34 35 36 37 38 39 40 41 42 43 44 45 46 47 48 49 50
000
AXUS43 KGID 190302
MISGRI

GID CWA HOURLY WEATHER ROUNDUP
NATIONAL WEATHER SERVICE HASTINGS NE
900 PM CST THU DEC 18 2014

NOTE: "FAIR" INDICATES FEW OR NO CLOUDS BELOW 12,000 FEET WITH NO
SIGNIFICANT WEATHER AND/OR OBSTRUCTIONS TO VISIBILITY.

...SOUTH CENTRAL NEBRASKA...

CITY           SKY/WX    TMP DP  RH WIND       PRES   REMARKS
GRAND ISLAND   CLOUDY    29  25  85 W9        30.18R WCI  20
HASTINGS       CLOUDY    30  25  81 SW6       30.17R WCI  24
KEARNEY        CLOUDY    28  25  86 SW6       30.16S WCI  22
ORD            CLOUDY    28  24  85 S5        30.14  WCI  23
YORK           PTCLDY    28  27  93 S6        30.19S WCI  22
AURORA         CLOUDY    30  28  95 S3        30.18S
LEXINGTON      CLOUDY    30  28  90 SW7       30.14R WCI  23
HOLDREGE       CLOUDY    28  26  91 W5        30.15S WCI  23
HEBRON         CLOUDY    30  26  86 CALM      30.22R

...NEBRASKA PANHANDLE...

CITY           SKY/WX    TMP DP  RH WIND       PRES   REMARKS
CHADRON        PTCLDY    18  14  84 SW8       30.06R WCI   8
ALLIANCE       MOCLDY    14  12  92 W7        30.06R WCI   4
SCOTTSBLUFF    FOG       14  12  92 N3        30.08R VSB 1/2
SIDNEY         CLOUDY    26  19  74 W12       30.08R WCI  16

...WESTERN AND NORTH CENTRAL NEBRASKA...

CITY           SKY/WX    TMP DP  RH WIND       PRES   REMARKS
VALENTINE      PTCLDY    10   7  87 CALM      30.08R FOG
AINSWORTH      PTCLDY    16  15  94 S3        30.08S FOG
ONEILL         CLOUDY    28  27  95 S3        30.13R
BROKEN BOW     CLOUDY    29  27  92 SW7       30.11S FOG     WCI  22
IMPERIAL       MOCLDY    21  19  92 CALM      30.10R FOG
NORTH PLATTE   MOCLDY    17  15  92 SE3       30.12R FOG
MCCOOK         CLOUDY    28  26  92 S5        30.13S WCI  23

...EASTERN NEBRASKA...

CITY           SKY/WX    TMP DP  RH WIND       PRES   REMARKS
NORFOLK        CLOUDY    29  25  85 S5        30.17S WCI  24
SO SIOUX CITY  CLOUDY    30  26  85 S8        30.21F WCI  22
TEKAMAH        CLOUDY    31  27  85 SE6       30.22S WCI  25
COLUMBUS       CLOUDY    28  23  80 S7        30.21R WCI  21
ALBION         CLOUDY    29  25  85 S6        30.16S WCI  23
OMAHA EPPLEY   CLOUDY    31  27  85 SE6       30.24S WCI  25
OFFUTT AFB     CLOUDY    30  27  88 SE6       30.23R WCI  24
MILLARD        CLOUDY    31  27  85 SE5       30.23R WCI  27
LINCOLN        CLOUDY    31  28  89 S7        30.23R WCI  24
NEBRASKA CITY  CLOUDY    30  30  99 S3        30.23S
BEATRICE       CLOUDY    31  28  89 S3        30.21S
FALLS CITY     CLOUDY    30  27  88 CALM      30.24S

...NORTHERN KANSAS...

CITY           SKY/WX    TMP DP  RH WIND       PRES   REMARKS
GOODLAND       CLEAR     25  23  92 SW5       30.11S FOG     WCI  19
HILL CITY      CLOUDY    32  28  85 S3        30.17S
NORTON         CLOUDY    34  27  75 S3        30.15R
PHILLIPSBURG   CLOUDY    34  30  86 SW5       30.19R WCI  30
SMITH CENTER   CLOUDY    28  27  93 SE7       30.20S WCI  21
BELOIT         CLOUDY    28  27  93 CALM      30.21S
HAYS           CLOUDY    34  23  64 CALM      30.18S
RUSSELL        CLOUDY    30  29  96 SE6       30.18S WCI  24
CONCORDIA      CLOUDY    28  26  92 S5        30.21S WCI  23
SALINA         CLOUDY    31  26  82 CALM      30.24S
TOPEKA         CLOUDY    33  29  85 CALM      30.26R



USA.gov is the U.S. government's official web portal to all federal, state and local government web resources and services.